Overview Statistics Trail Chart Weather Telemetry Raw packets
 

This is the latest recevied weather packets stored in our database for station/object 4S6DRJ-13. If no packets are shown the sender has not sent any weather packets the latest 10 day(s).

<< 40 41 42 43 44 45 46 >>
Time Temp. Humidity Pressure Rain* Wind** Luminosity Snow
1788387280 27.78° C 86% 1008.5 hPa 0 mm 0 m/s 0 W/m² -
1788387220 27.78° C 86% 1008.5 hPa 0 mm 0.45 m/s, 225° 0 W/m² -
1788387158 27.78° C 86% 1008.5 hPa 0 mm 0.89 m/s, 282° 0 W/m² -
1788387097 27.78° C 85% 1008.7 hPa 0 mm 0 m/s 0 W/m² -
1788387036 27.78° C 85% 1008.4 hPa 0 mm 1.34 m/s, 188° 0 W/m² -
1788386975 27.78° C 85% 1008.7 hPa 0 mm 0.45 m/s, 232° 0 W/m² -
1788386914 27.78° C 85% 1008.6 hPa 0 mm 1.34 m/s, 235° 0 W/m² -
1788386792 27.78° C 85% 1008.6 hPa 0 mm 0.89 m/s, 207° 0 W/m² -
1788386731 27.78° C 85% 1008.5 hPa 0 mm 0.89 m/s, 243° 0 W/m² -
1788386670 27.78° C 85% 1008.5 hPa 0 mm 0.89 m/s, 244° 0 W/m² -
1788386609 27.78° C 85% 1008.6 hPa 0 mm 0.89 m/s, 228° 0 W/m² -
1788386548 27.78° C 85% 1008.4 hPa 0 mm 0.45 m/s, 223° 0 W/m² -
1788386487 27.78° C 85% 1008.4 hPa 0 mm 0.89 m/s, 226° 0 W/m² -
1788386426 27.78° C 85% 1008.7 hPa 0 mm 0.89 m/s, 281° 0 W/m² -
1788386365 27.78° C 85% 1008.5 hPa 0 mm 1.34 m/s, 235° 0 W/m² -
1788386304 27.78° C 85% 1008.4 hPa 0 mm 0.89 m/s, 303° 0 W/m² -
1788386243 27.78° C 85% 1008.6 hPa 0 mm 0.45 m/s, 216° 0 W/m² -
1788386183 27.78° C 85% 1008.6 hPa 0 mm 0.89 m/s, 232° 0 W/m² -
1788386121 27.78° C 84% 1008.6 hPa 0 mm 1.79 m/s, 238° 0 W/m² -
1788386060 27.78° C 84% 1008.6 hPa 0 mm 0.89 m/s, 251° 0 W/m² -
1788386001 27.78° C 84% 1008.6 hPa 0 mm 0.89 m/s, 197° 0 W/m² -
1788385938 27.78° C 84% 1008.5 hPa 0 mm 0.89 m/s, 257° 0 W/m² -
1788385877 27.78° C 84% 1008.4 hPa 0 mm 0.89 m/s, 325° 0 W/m² -
1788385816 27.78° C 84% 1008.4 hPa 0 mm 0.89 m/s, 225° 0 W/m² -
1788385755 27.78° C 84% 1008.4 hPa 0 mm 0.45 m/s, 214° 0 W/m² -

* Rain latest hour (hover to see other rain measurements)
** Current wind speed in m/s (hover to see current wind gust speed)